Weather History for Huron, SD

Change the Weather History Date:

Friday, August 9, 2013

  Actual Average Record
Temperature  
Mean Temperature 65 °F 73 °F  
Max Temperature 79 °F 85 °F 109 °F (1947)
Min Temperature 51 °F 61 °F 41 °F (1966)
Degree Days  
Heating Degree Days 0 0  
Month to date heating degree days 0 0  
Since 1 June heating degree days 87 59  
Since 1 July heating degree days 21 8  
Cooling Degree Days 0 8  
Month to date cooling degree days 27 78  
Year to date cooling degree days 455 521  
Since 1 June cooling degree days 417 488  
Growing Degree Days 15 (Base 50)    
Moisture  
Dew Point 56 °F    
Average Humidity 71    
Maximum Humidity 100    
Minimum Humidity 42    
Precipitation  
Precipitation 0.00 in 0.08 in 1.33 in (1901)
Month to date precipitation 0.52 0.85  
Year to date precipitation 16.50 15.68  
Snow  
Snow 0.00 in 0.00 in 0.00 in ()
Month to date snowfall 0.0 0.0  
Since 1 June snowfall 0.0 0.0  
Since 1 July snowfall 0.0 0.0  
Snow Depth 0.00 in    
Sea Level Pressure  
Sea Level Pressure 30.10 in    
Wind  
Wind Speed 3 mph (NNW)    
Max Wind Speed 12 mph    
Max Gust Speed 15 mph    
Visibility 9 miles    
Events      
T = Trace of Precipitation, MM = Missing Value Source: NWS Daily Summary

Daily Weather History Graph

Daily Weather History Graph

Search for Another Location

Airport:

Trip Planner

Search our weather history database for the weather conditions in past years. The results will help you decide how hot, cold, wet, or windy it might be!

Date:

Astronomy

Aug. 09, 2013 Rise Set
Actual Time 6:29 AM CDT 8:46 PM CDT
Civil Twilight 5:57 AM CDT 9:18 PM CDT
Nautical Twilight 5:17 AM CDT 9:58 PM CDT
Astronomical Twilight 4:32 AM CDT 10:42 PM CDT
Moon 9:26 AM CDT (8/9) 9:46 PM CDT (8/9)
Length of Visible Light 15h 21m
Length of Day
14h 17m
Waxing Crescent, 8% of the Moon is Illuminated
Aug 9
Waxing Crescent
Aug 14
First Quarter
Aug 20
Full
Aug 28
Last Quarter
Sep 5
New

Hourly Weather History & Observations

Time (CDT) Temp. Dew Point Humidity Pressure Visibility Wind Dir Wind Speed Gust Speed Precip Events Conditions
12:55 AM 60.1 °F 57.9 °F 93% 30.05 in 10.0 mi Calm Calm - N/A   Clear
1:55 AM 57.0 °F 57.0 °F 100% 30.06 in 10.0 mi Calm Calm - N/A   Clear
2:55 AM 55.9 °F 55.9 °F 100% 30.06 in 7.0 mi West 4.6 mph - N/A   Clear
3:55 AM 54.0 °F 54.0 °F 100% 30.06 in 6.0 mi Calm Calm - N/A   Clear
4:55 AM 53.1 °F 53.1 °F 100% 30.07 in 9.0 mi Calm Calm - N/A   Clear
5:55 AM 52.0 °F 52.0 °F 100% 30.09 in 8.0 mi NNW 3.5 mph - N/A   Clear
6:55 AM 52.0 °F 52.0 °F 100% 30.10 in 5.0 mi WNW 3.5 mph - N/A   Clear
7:55 AM 57.9 °F 55.9 °F 93% 30.11 in 10.0 mi Calm Calm - N/A   Clear
8:55 AM 64.0 °F 57.0 °F 78% 30.13 in 10.0 mi North 3.5 mph - N/A   Clear
9:55 AM 69.1 °F 57.9 °F 68% 30.13 in 10.0 mi North 4.6 mph - N/A   Clear
10:55 AM 73.0 °F 55.9 °F 55% 30.13 in 10.0 mi North 6.9 mph - N/A   Clear
11:55 AM 73.0 °F 55.0 °F 53% 30.13 in 10.0 mi North 9.2 mph - N/A   Clear
12:55 PM 75.0 °F 55.0 °F 50% 30.12 in 10.0 mi NNW 9.2 mph - N/A   Clear
1:55 PM 75.9 °F 55.0 °F 48% 30.12 in 10.0 mi NE 6.9 mph - N/A   Clear
2:55 PM 78.1 °F 55.0 °F 45% 30.11 in 10.0 mi NNW 8.1 mph - N/A   Clear
3:55 PM 78.1 °F 55.0 °F 45% 30.11 in 10.0 mi NW 4.6 mph - N/A   Overcast
4:55 PM 79.0 °F 55.9 °F 45% 30.10 in 10.0 mi NNE 8.1 mph - N/A   Partly Cloudy
5:55 PM 79.0 °F 54.0 °F 42% 30.10 in 10.0 mi WNW 5.8 mph - N/A   Clear
6:55 PM 77.0 °F 55.0 °F 47% 30.10 in 10.0 mi Calm Calm - N/A   Clear
7:55 PM 77.0 °F 55.9 °F 48% 30.09 in 10.0 mi Calm Calm - N/A   Clear
8:55 PM 71.1 °F 55.9 °F 59% 30.11 in 10.0 mi Calm Calm - N/A   Clear
9:55 PM 66.0 °F 60.1 °F 81% 30.12 in 10.0 mi Calm Calm - N/A   Mostly Cloudy
10:55 PM 66.0 °F 57.9 °F 75% 30.13 in 10.0 mi SSW 3.5 mph - N/A   Scattered Clouds
11:55 PM 62.1 °F 59.0 °F 90% 30.13 in 10.0 mi Calm Calm - N/A   Clear